Location: Orange Harbor Mobile Home Park
(26.6923°N, 81.7937°W)
Time: 21:30:35
(UTC+00:00)

Cosmos 1515 - Pass Details

Date: 19 September 2020
Orbit: 506 x 516 km, 82.5° (Epoch: 24 October)

Event Time Altitude Azimuth Distance (km) Brightness Sun altitude
Rises 10:49:03 0° 188° (S) 2,612 7.1 -6.5°
Reaches altitude 10° 10:51:10 10° 189° (S) 1,728 6.2 -6.1°
Maximum altitude 10:54:57 76° 275° (W) 530 3.6 -5.2°
Drops below altitude 10° 10:58:45 10° 2° (N) 1,731 6.4 -4.4°
Sets 11:00:53 0° 4° (N) 2,618 7.4 -3.9°
